Home > Time Zones > World Clock > Weather > India > Theni > Past weeks

Flag for India Weather past 2 weeks in Theni, Tamil Nadu, India

Now
79 °F

Drizzle. Broken clouds.


Feels Like: 82 °F
Forecast: 72 / 89 °F
Wind: 3 mph from Northeast

Location: Coimbatore / Peelamedu

Current Time: Oct 21, 2014 at 1:21:50 PM

Latest Report: Oct 21, 2014 at 12:30 PM


Visibility: 3 mi

Pressure: 29.98 "Hg

Humidity: 79%

Dew point: 72 °F

Location of TheniLocation

Historic Weather in Theni — Graph

°F

Theni temperature yesterday

Maximum temperature yesterday: 79 °F (at 12:00 PM)
Minimum temperature yesterday: 72 °F (at 12:00 AM)
Average temperature yesterday: 76 °F

Past Weeks' High & Low Weather Summary

 TemperatureHumidityPressure
High91 °F (Oct 14, 2:00 PM)100% (Oct 10, 2:30 AM)30.01 "Hg (Oct 10, 2:30 AM)
Low72 °F (Oct 11, 6:10 AM)44% (Oct 14, 2:00 PM)29.71 "Hg (Oct 11, 3:30 PM)
Average79 °F81%29.87 "Hg
* Reported Oct 6 11:30 AM — Oct 21 12:00 Noon, Theni, Weather by CustomWeather, © 2014

Note: Actual official high and low records may vary slightly from our data, if they occured in-between our weather recording intervals... More about our weather records

Advertising

Theni weather history for previous 24 hours

 ConditionsComfort  
Time TempWeatherWind HumidityBarometerVisibility
12:00 PM
Oct 21
79 °FDrizzle. Broken clouds.6 mph79%30.01 "Hg3 mi
11:00 AM77 °FBroken clouds.5 mph89%30.01 "Hg3 mi
10:00 AM75 °FBroken clouds.3 mph89%30.01 "Hg2 mi
9:30 AM75 °FBroken clouds.5 mph89%30.01 "Hg2 mi
8:30 AM75 °FBroken clouds.5 mph89%30.01 "Hg2 mi
8:00 AM73 °FBroken clouds.5 mph94%30.01 "Hg2 mi
7:00 AM73 °FBroken clouds.6 mph94%29.98 "Hg2 mi
6:00 AM73 °FPartly cloudy.5 mph94%29.92 "Hg3 mi
5:30 AM73 °FPartly cloudy.5 mph94%29.92 "Hg3 mi
4:30 AM73 °FPartly cloudy.5 mph94%29.92 "Hg3 mi
2:30 AM73 °FPartly cloudy.5 mph94%29.92 "Hg3 mi
11:30 PM
Oct 20
73 °FPartly cloudy.5 mph94%29.98 "Hg3 mi
10:30 PM75 °FPartly cloudy.6 mph94%29.98 "Hg3 mi
10:00 PM75 °FPartly cloudy.5 mph94%29.98 "Hg3 mi
9:30 PM75 °FPartly cloudy.6 mph94%29.98 "Hg3 mi
9:00 PM75 °FPartly cloudy.6 mph94%29.98 "Hg3 mi
8:30 PM75 °FPartly cloudy.5 mph94%29.95 "Hg3 mi
7:30 PM77 °FPartly cloudy.6 mph89%29.92 "Hg4 mi
7:00 PM77 °FPartly cloudy.3 mph89%29.92 "Hg4 mi
6:30 PM77 °FBroken clouds.5 mph89%29.89 "Hg4 mi
6:00 PM77 °FBroken clouds.3 mph83%29.89 "Hg4 mi
5:30 PM77 °FBroken clouds.5 mph83%29.86 "Hg4 mi
5:00 PM77 °FBroken clouds.9 mph89%29.86 "Hg4 mi
4:30 PM77 °FBroken clouds.9 mph83%29.86 "Hg4 mi
4:00 PM77 °FBroken clouds.13 mph83%29.86 "Hg4 mi
3:30 PM79 °FBroken clouds.10 mph84%29.86 "Hg4 mi
3:00 PM79 °FBroken clouds.9 mph84%29.86 "Hg4 mi
2:30 PM79 °FBroken clouds.9 mph79%29.86 "Hg4 mi
2:00 PM79 °FBroken clouds.9 mph84%29.86 "Hg4 mi
1:30 PM79 °FBroken clouds.9 mph84%29.86 "Hg4 mi
1:00 PM79 °FBroken clouds.9 mph84%29.89 "Hg4 mi
Weather by CustomWeather, © 2014

See weather overviewHow to use our weather pages